Winner, SD

12:34 PM CDT on August 20, 2017 (GMT -0500)
Winner

Weather History for KICR - October, 2012

Change the Weather History Date:

Saturday, October 27, 2012

  Actual Average Record
Temperature  
Mean Temperature 35 °F 46 °F  
Max Temperature 44 °F 57 °F 84 °F (2016)
Min Temperature 25 °F 35 °F 23 °F (2008)
Degree Days  
Heating Degree Days 30 19  
Month to date heating degree days 423 376  
Since 1 July heating degree days 481 518  
Cooling Degree Days 0 0  
Month to date cooling degree days 2 9  
Year to date cooling degree days 1470 915  
Moisture  
Dew Point 28 °F    
Average Humidity 77    
Maximum Humidity 92    
Minimum Humidity 62    
Precipitation  
Precipitation 0.00 in 0.04 in 0.05 in (2014)
Month to date precipitation 0.04 1.51  
Year to date precipitation 10.15 20.50  
Sea Level Pressure  
Sea Level Pressure 30.22 in    
Wind  
Wind Speed 9 mph (South)    
Max Wind Speed 25 mph    
Max Gust Speed 33 mph    
Visibility 10 miles    
Events      
T = Trace of Precipitation, MM = Missing Value Source: NWS Daily Summary

Daily Weather History Graph

Daily Weather History Graph

Search for Another Location

Airport or City:

Trip Planner

Search our weather history database for the weather conditions in past years. The results will help you decide how hot, cold, wet, or windy it might be!

Date:

Astronomy

Oct. 27, 2012 Rise Set
Actual Time 8:08 AM CDT 6:36 PM CDT
Civil Twilight 7:39 AM CDT 7:06 PM CDT
Nautical Twilight 7:05 AM CDT 7:39 PM CDT
Astronomical Twilight 6:32 AM CDT 8:12 PM CDT
Moon 5:25 PM CDT (10/27) 6:03 AM CDT (10/27)
Length of Visible Light 11h 26m
Length of Day
10h 27m
Waxing Gibbous, 96% of the Moon is Illuminated
Oct 27
Waxing Gibbous
Oct 29
Full
Nov 6
Last Quarter
Nov 13
New
Nov 20
First Quarter

Hourly Weather History & Observations

Time (CDT) Temp. Windchill Dew Point Humidity Pressure Visibility Wind Dir Wind Speed Gust Speed Precip Events Conditions
12:53 AM 25.0 °F 16.3 °F 21.0 °F 85% 30.35 in 10.0 mi SE 8.1 mph - N/A   Clear
1:53 AM 28.0 °F 18.1 °F 24.1 °F 85% 30.33 in 10.0 mi South 11.5 mph - N/A   Clear
2:53 AM 28.9 °F 19.8 °F 24.1 °F 82% 30.32 in 10.0 mi South 10.4 mph - N/A   Clear
3:53 AM 28.0 °F 19.3 °F 24.1 °F 85% 30.30 in 10.0 mi South 9.2 mph - N/A   Clear
4:53 AM 30.0 °F 21.1 °F 24.1 °F 79% 30.29 in 10.0 mi South 10.4 mph - N/A   Clear
5:53 AM 28.0 °F 18.6 °F 24.1 °F 85% 30.28 in 10.0 mi South 10.4 mph - N/A   Clear
6:53 AM 28.9 °F 21.1 °F 24.1 °F 82% 30.26 in 10.0 mi South 8.1 mph - N/A   Clear
7:53 AM 28.9 °F 18.6 °F 25.0 °F 85% 30.27 in 10.0 mi South 12.7 mph - N/A   Overcast
8:53 AM 30.9 °F 21.7 °F 26.1 °F 82% 30.26 in 10.0 mi South 11.5 mph - N/A   Mostly Cloudy
9:53 AM 34.0 °F 22.1 °F 27.0 °F 75% 30.23 in 10.0 mi South 21.9 mph 28.8 mph N/A   Clear
10:53 AM 35.1 °F 23.5 °F 28.0 °F 76% 30.23 in 10.0 mi South 21.9 mph 27.6 mph N/A   Overcast
11:53 AM 36.0 °F 25.0 °F 28.9 °F 76% 30.22 in 10.0 mi South 20.7 mph - N/A   Mostly Cloudy
12:53 PM 36.0 °F 28.0 °F 28.9 °F 76% 30.22 in 10.0 mi South 11.5 mph 17.3 mph N/A   Overcast
1:53 PM 37.9 °F 29.2 °F 30.0 °F 73% 30.19 in 10.0 mi South 15.0 mph - N/A   Mostly Cloudy
2:53 PM 39.9 °F 32.1 °F 32.0 °F 73% 30.17 in 10.0 mi SSW 13.8 mph - N/A   Clear
3:39 PM 42.8 °F 36.6 °F 32.0 °F 66% 30.10 in 10.0 mi SSW 11.5 mph - N/A   Mostly Cloudy
3:53 PM 43.0 °F 37.7 °F 32.0 °F 65% 30.15 in 10.0 mi SSW 9.2 mph - N/A   Scattered Clouds
4:24 PM 44.6 °F 39.7 °F 33.8 °F 66% 30.10 in 10.0 mi SW 9.2 mph - N/A   Mostly Cloudy
4:36 PM 44.6 °F 42.2 °F 32.0 °F 61% 30.11 in 10.0 mi SW 4.6 mph - N/A   Scattered Clouds
5:53 PM 43.0 °F 40.3 °F 32.0 °F 65% 30.16 in 10.0 mi SSW 4.6 mph - N/A   Clear
6:53 PM 41.0 °F - 32.0 °F 70% 30.18 in 10.0 mi Calm Calm - N/A   Clear
7:53 PM 39.0 °F 36.8 °F 30.9 °F 73% 30.20 in 10.0 mi SW 3.5 mph - N/A   Clear
8:53 PM 36.0 °F - 30.0 °F 79% 30.21 in 10.0 mi Calm Calm - N/A   Clear
9:53 PM 30.9 °F 27.5 °F 28.0 °F 89% 30.22 in 10.0 mi SSE 3.5 mph - N/A   Clear
11:53 PM 28.0 °F - 25.0 °F 88% 30.24 in 9.0 mi Calm Calm - N/A   Clear